GFSNE_prec_cloud_159.txt.gz
Cloud_Cover
100 100 100 100 100 100 100 100 100 100 100 100 100 100 100 99 100 100 100 100 100 100 100 100 100 100 100 100 100 100 100 100 100 100 100 100 100 100
100 100 100 100 100 100 100 100 100 100 100 100 100 100 100 100 99 98 100 100 100 100 100 100 100 100 100 100 100 100 100 100 100 100 100 100 100 100
94 100 100 100 100 100 100 100 100 100 100 100 100 100 100 100 100 100 100 100 100 100 100 100 100 100 100 100 100 100 100 100 100 100 100 100 100 100
95 94 100 100 100 100 100 100 100 100 100 100 100 100 100 100 100 100 100 100 100 100 100 100 100 100 100 100 100 100 100 100 100 100 100 100 100 100
98 97 100 100 100 100 100 100 100 100 100 100 100 100 100 100 100 100 100 100 100 100 100 100 100 100 100 100 100 100 100 100 100 100 100 100 100 100
100 100 100 99 100 100 100 100 100 100 100 100 100 100 100 100 100 100 100 100 100 100 100 100 100 100 100 100 86 100 100 100 100 100 100 100 100 100
100 100 100 100 100 100 98 100 100 100 100 100 100 100 100 100 100 100 100 100 100 100 100 100 100 96 100 94 100 100 100 100 100 100 100 100 100 100
100 100 100 100 100 100 100 100 100 100 100 100 100 100 100 100 100 100 100 100 100 100 100 100 100 100 100 38 100 100 100 100 100 100 100 100 100 100
100 100 100 100 100 100 100 100 100 100 100 100 100 100 100 100 100 100 100 100 100 100 100 100 100 100 100 98 94 90 86 99 100 100 100 100 100 100
100 100 100 100 100 100 100 100 100 100 100 100 100 100 100 100 100 100 100 100 100 100 100 96 100 100 100 80 49 82 5 5 46 100 96 100 100 100
100 100 100 100 100 100 100 100 100 100 100 100 100 100 100 100 100 100 100 100 100 83 100 26 49 95 100 54 8 5 5 5 5 25 71 8 98 100
100 100 100 100 100 100 100 100 100 100 100 100 100 100 100 100 100 100 100 100 100 100 64 68 99 61 43 9 6 5 5 5 5 5 5 5 5 5
100 100 100 100 100 100 100 100 100 100 100 100 100 100 100 100 100 100 100 100 100 100 100 100 100 93 77 34 44 7 41 9 11 9 22 6 5 26
100 100 100 100 100 100 100 100 100 100 100 100 100 100 100 100 100 100 100 100 100 100 100 100 100 100 100 99 42 7 10 74 73 72 78 46 27 79
100 99 91 65 90 93 89 100 100 100 100 100 100 100 100 100 100 100 100 100 100 100 100 100 100 100 100 100 100 100 100 72 36 63 61 75 91 99
100 100 93 69 58 14 47 95 47 9 94 100 100 100 100 100 100 100 100 100 100 100 100 100 100 100 100 100 100 99 84 61 91 88 91 89 79 89
81 99 100 100 99 50 11 5 5 42 50 97 100 100 100 100 100 100 100 93 51 6 11 53 85 75 79 84 95 85 79 75 66 78 10 18 91 100
93 100 100 100 99 77 56 7 5 5 14 29 8 12 35 81 98 94 98 40 5 5 4 4 4 2 2 3 10 30 44 33 29 18 60 28 5 45
24 7 36 5 5 5 5 8 19 5 6 5 5 5 35 8 15 6 36 9 5 5 5 5 1 4 5 5 26 56 47 90 78 77 72 81 100 98
58 55 18 6 5 5 5 5 5 51 82 76 50 14 59 74 78 62 61 73 7 5 5 5 5 5 5 37 99 95 84 94 88 91 87 61 69 59
79 42 7 5 5 70 38 56 51 22 5 6 30 52 72 36 73 90 99 42 33 8 5 5 5 5 5 22 11 6 5 42 91 92 89 68 74 39
94 93 44 5 5 5 55 86 78 79 38 34 66 75 95 98 100 100 100 100 100 100 82 59 48 11 13 5 30 66 6 5 5 5 76 87 100 100
81 76 39 72 63 5 5 51 33 61 33 57 30 61 94 92 100 100 100 100 100 100 100 100 100 99 100 87 91 100 100 33 8 5 9 77 100 100

GFSNE_prec_cloud_162.txt.gz
Cloud_Cover
100 100 100 100 100 100 100 100 100 100 100 100 100 100 100 100 100 100 100 100 100 100 100 100 100 100 100 100 100 100 100 100 100 100 100 100 100 100
94 100 100 100 100 100 100 100 100 100 100 100 100 100 100 100 100 100 100 100 100 100 100 100 100 100 100 100 100 100 100 100 100 100 100 100 100 100
51 100 100 100 100 100 100 100 100 100 100 100 100 100 100 100 100 100 100 100 100 100 100 100 100 100 100 100 100 100 100 100 100 100 100 100 100 100
5 90 98 100 100 100 100 100 100 100 100 100 100 100 100 100 100 100 100 100 100 100 100 98 100 100 100 100 100 100 100 100 100 100 100 100 100 100
100 100 100 98 100 100 100 100 100 100 100 100 100 100 100 100 100 100 100 100 100 100 100 100 100 100 100 100 100 100 100 100 100 100 100 100 100 100
94 88 99 100 100 100 100 100 100 100 100 100 100 100 100 100 100 100 100 100 100 100 100 100 100 100 100 100 100 100 100 100 100 100 100 100 100 100
89 84 100 100 100 100 100 100 100 100 100 100 100 100 100 100 100 100 100 100 100 100 100 100 100 100 100 100 100 100 100 100 100 100 100 100 100 100
95 100 100 100 100 100 100 100 100 100 100 100 100 100 100 100 100 100 100 100 100 100 100 100 100 100 100 100 100 100 100 100 100 100 100 100 100 100
100 100 100 100 100 100 100 100 100 100 100 100 100 100 100 100 100 100 100 100 100 100 100 100 100 100 100 100 100 98 76 99 100 93 100 100 100 100
97 100 100 100 100 100 100 100 100 100 100 100 100 100 100 100 100 100 100 100 100 100 100 100 100 100 100 100 100 100 100 100 67 100 100 100 100 100
100 100 91 100 100 100 100 100 100 100 100 100 100 100 100 100 100 100 100 100 100 100 100 100 100 100 100 100 100 100 100 95 100 87 94 93 100 100
100 99 90 90 97 100 100 100 100 100 100 100 100 100 100 100 100 100 100 100 100 100 100 100 100 100 100 100 97 99 100 100 96 93 95 100 100 100
100 100 100 92 72 68 71 81 99 100 100 100 100 100 100 100 100 100 100 100 100 100 100 100 100 100 100 98 99 99 100 100 100 100 100 88 100 65
100 100 100 100 82 60 60 58 76 86 100 100 100 100 100 100 100 100 100 100 100 100 100 100 100 100 100 100 100 98 100 100 100 100 100 100 100 100
82 59 45 58 75 60 18 50 72 77 80 74 100 100 100 100 100 100 100 100 100 100 100 100 100 100 100 100 100 100 100 100 100 100 100 100 100 100
26 5 5 22 5 5 43 5 5 5 21 60 99 92 90 100 100 100 100 100 100 100 100 100 100 100 100 100 100 100 100 100 100 99 97 100 100 100
24 21 5 5 5 5 5 5 5 5 5 17 11 6 5 5 8 55 99 27 6 30 65 77 92 82 71 43 80 68 81 86 97 96 99 96 100 100
5 5 5 5 5 5 5 5 5 4 5 5 5 5 5 5 5 5 5 16 31 14 5 5 5 21 81 62 46 57 64 59 70 68 86 82 74 94
24 6 5 5 5 5 5 5 4 5 5 5 5 5 66 57 21 9 54 5 38 48 12 5 5 5 21 93 71 44 19 39 88 96 100 100 98 86
89 91 74 48 5 5 5 5 5 5 5 5 7 53 86 80 90 66 70 89 31 5 24 20 5 5 6 89 100 100 91 48 92 98 97 62 74 39
87 83 71 43 5 5 6 32 66 38 21 92 83 48 100 89 81 68 100 62 22 20 5 5 5 5 16 81 100 100 100 99 57 100 100 99 96 74
100 94 84 84 62 48 86 91 92 95 76 35 92 100 100 100 100 100 100 100 95 79 60 49 55 23 63 93 100 100 100 100 100 100 98 95 100 100
85 88 94 100 100 100 100 87 21 93 53 41 74 78 100 100 100 100 100 100 100 100 100 100 100 100 100 100 96 100 100 100 100 100 100 100 100 100

GFSNE_prec_cloud_165.txt.gz
Cloud_Cover
37 100 100 100 100 100 100 100 100 100 100 100 100 100 100 100 100 100 100 100 100 100 100 100 100 100 100 100 100 100 100 100 100 100 100 100 100 100
15 79 100 100 100 100 100 100 100 100 100 100 100 100 100 100 100 100 100 100 100 100 100 100 100 100 100 100 100 100 100 100 100 100 100 100 100 100
24 62 80 100 100 100 100 100 100 100 100 100 100 100 100 100 100 100 100 100 100 100 100 100 100 100 100 100 100 100 100 100 100 100 100 100 100 100
30 6 59 95 100 100 100 100 100 100 100 100 100 100 100 100 100 100 100 100 100 100 100 100 100 100 100 100 100 100 100 100 100 100 100 100 100 100
77 12 71 92 100 100 100 100 100 100 100 100 100 100 100 100 100 100 100 100 100 100 100 100 100 100 100 100 100 100 100 100 100 100 100 100 100 100
100 62 90 65 97 100 100 100 100 100 100 100 100 100 100 100 100 100 100 100 100 100 100 100 100 100 100 100 100 100 100 100 100 100 100 100 100 100
100 99 100 91 100 100 100 100 100 100 100 100 100 100 100 100 100 100 100 100 100 100 100 100 100 100 100 100 100 100 100 100 100 100 100 100 100 100
77 91 66 100 100 100 100 100 100 100 100 100 100 100 100 100 100 100 100 100 100 100 100 100 100 100 100 100 100 100 100 100 100 100 100 100 100 100
79 52 40 96 100 100 100 100 100 100 100 100 100 100 100 100 100 100 100 100 100 100 100 100 100 98 84 100 100 100 100 100 100 100 100 100 100 100
100 97 68 44 66 100 100 100 100 100 100 100 100 100 100 100 100 100 100 100 100 100 100 100 100 100 92 100 100 100 100 100 100 100 100 100 100 100
99 88 92 68 53 48 96 100 100 100 100 100 100 100 100 100 100 100 100 100 100 100 100 100 100 100 100 100 100 100 100 100 100 100 100 100 100 100
94 100 67 53 14 54 71 75 99 100 100 98 100 100 100 100 100 100 100 100 100 100 100 100 100 100 100 100 100 100 100 100 100 100 98 100 100 100
100 100 92 72 64 21 42 65 77 98 99 100 100 100 100 100 100 100 100 100 100 100 100 100 100 100 100 100 100 100 100 96 100 94 100 100 100 100
100 100 83 43 5 5 5 37 19 99 100 100 100 100 92 100 100 100 100 100 100 100 100 100 100 100 100 100 100 100 100 100 100 100 100 100 100 100
99 50 6 5 8 58 5 65 86 100 100 100 100 100 58 86 70 100 79 94 99 100 100 100 100 100 100 100 100 100 100 100 100 100 100 100 100 100
32 48 17 5 5 34 94 86 77 55 88 100 98 74 58 10 20 80 98 100 100 100 100 100 100 97 100 100 100 100 100 100 100 100 100 98 97 84
76 98 99 73 74 79 86 18 5 5 26 68 69 74 61 27 26 5 16 52 81 100 100 100 100 100 100 99 100 100 100 100 100 99 100 100 100 100
47 93 100 100 68 21 56 72 9 5 5 5 20 5 58 20 52 55 61 79 21 7 23 59 57 86 82 100 100 100 89 95 100 100 99 97 98 100
88 98 100 100 37 5 5 5 6 5 5 10 57 70 98 98 83 70 92 88 70 5 5 5 5 6 99 100 98 32 98 90 98 87 90 93 100 100
86 96 99 75 45 17 5 5 16 62 57 14 98 100 100 100 100 99 99 72 46 9 5 5 4 2 47 92 99 100 92 35 94 100 99 86 75 14
100 100 96 76 79 71 70 87 92 75 67 100 100 98 100 100 100 99 100 60 33 60 54 10 5 1 5 69 100 100 92 88 91 86 80 100 100 98
100 100 100 100 100 99 100 100 100 96 90 83 100 100 100 100 100 100 100 100 100 99 76 74 26 32 80 93 100 97 96 87 50 100 95 99 82 100
100 100 100 100 99 88 73 100 40 100 86 89 100 100 100 100 100 100 100 100 100 100 100 99 99 100 100 100 100 100 100 100 100 100 100 100 100 97

GFSNE_prec_cloud_168.txt.gz
Cloud_Cover
2 5 40 85 100 100 100 100 100 100 100 100 100 100 100 100 100 100 100 100 100 100 100 100 100 100 100 100 100 100 100 100 100 100 100 100 100 100
5 5 5 100 100 100 100 100 100 100 100 100 100 100 100 100 100 100 100 100 100 100 100 100 100 100 100 100 100 100 100 100 100 100 100 100 100 100
5 5 5 35 98 100 100 100 100 100 100 100 100 100 100 100 100 100 100 100 100 100 100 100 100 100 100 100 100 100 100 100 100 100 100 100 100 100
5 5 15 5 7 94 100 100 100 100 100 100 90 100 100 100 100 99 100 100 100 100 100 100 100 100 100 100 100 100 100 100 100 100 100 100 100 100
5 5 5 70 5 72 82 100 100 100 100 94 100 100 100 100 98 94 100 100 100 100 100 100 100 100 100 100 100 100 100 100 100 100 100 100 100 100
5 5 5 5 10 5 5 89 100 100 100 100 100 79 91 98 94 100 100 100 100 100 100 100 100 100 100 100 100 100 100 100 100 100 100 100 100 100
5 5 5 5 8 25 59 100 100 100 100 100 100 100 92 86 94 95 100 86 100 99 95 100 100 100 100 100 100 100 100 100 100 100 100 100 100 100
5 5 5 5 5 5 71 93 100 100 100 100 100 100 100 100 95 98 88 80 95 91 100 100 99 100 100 100 100 100 100 100 100 100 100 100 100 100
5 5 6 5 5 5 20 5 100 100 100 100 100 100 100 100 100 100 100 99 99 86 91 90 100 98 91 100 100 100 100 100 100 100 100 100 100 100
5 5 5 5 5 5 5 20 17 100 100 100 100 100 100 100 100 100 100 100 98 99 85 70 99 97 96 87 100 100 100 100 100 100 100 100 100 100
5 5 5 5 78 73 5 5 5 44 100 100 100 100 100 100 100 100 100 100 100 100 100 100 98 100 99 100 100 100 100 100 100 100 100 100 100 100
90 5 26 5 5 74 14 48 87 14 75 28 100 100 100 100 100 100 100 100 100 100 100 100 100 100 100 100 100 100 100 100 100 100 100 100 100 100
92 10 5 16 5 6 6 5 46 92 49 31 6 41 91 100 100 100 100 100 100 100 98 99 100 100 100 93 98 100 100 55 54 99 100 100 100 100
87 8 5 5 5 5 5 5 81 92 75 59 5 5 5 25 11 69 100 100 100 100 100 100 96 87 100 100 72 63 100 88 79 88 100 100 100 100
12 5 4 3 6 5 5 5 5 6 9 5 5 5 5 5 5 5 7 52 79 62 92 100 100 100 100 100 100 100 100 100 100 99 100 100 100 100
5 5 5 5 5 6 69 8 5 5 5 5 37 15 5 5 5 2 5 43 25 11 84 67 75 100 100 100 100 100 100 100 92 100 85 100 100 100
5 5 27 28 80 100 32 5 5 5 5 5 5 5 5 3 5 2 5 5 5 5 5 5 83 80 74 91 100 100 100 100 100 100 100 100 93 94
43 85 86 37 92 53 65 46 5 5 5 5 5 5 5 5 5 5 5 5 5 5 1 1 2 70 92 100 52 48 100 100 100 100 100 100 99 100
25 79 91 79 31 5 5 6 5 5 5 5 5 5 5 5 5 24 5 4 5 0 4 0 0 4 5 5 42 98 96 48 76 88 100 100 100 100
37 94 82 84 69 58 59 50 6 18 5 30 5 5 5 62 5 8 65 5 5 4 5 5 0 0 5 5 9 97 98 51 98 62 7 6 38 78
76 72 80 81 73 62 68 55 36 5 5 22 58 11 5 46 61 7 55 14 14 18 5 5 5 4 5 5 5 9 3 66 91 5 42 76 53 8
82 72 84 87 87 60 64 60 69 70 67 65 37 61 20 43 85 71 60 45 26 5 5 5 5 5 5 45 49 6 6 66 2 17 100 100 100 88
92 80 98 88 84 81 75 92 51 78 66 5 55 86 33 51 55 64 64 50 100 17 100 26 5 41 58 11 79 41 5 5 6 78 5 6 100 97

GFSNE_prec_cloud_171.txt.gz
Cloud_Cover
87 8 5 9 73 100 99 95 100 100 100 100 100 100 100 100 100 83 99 100 100 100 100 100 100 100 100 100 100 100 100 100 100 100 100 100 100 100
89 5 5 5 52 85 88 91 88 100 98 100 100 100 100 99 100 100 86 100 100 100 100 100 100 100 100 100 100 100 100 100 100 100 100 100 100 100
44 6 5 5 6 20 58 74 100 100 100 100 100 100 100 79 66 94 100 100 100 100 100 100 100 100 100 100 100 100 100 100 100 100 100 100 100 100
5 5 5 5 5 5 70 96 92 100 100 100 100 100 89 97 91 100 100 100 100 100 100 100 100 100 100 100 100 100 100 100 100 100 100 100 100 100
9 5 5 5 5 5 8 61 62 50 94 97 88 99 100 69 92 88 100 100 100 100 100 100 100 100 100 100 100 100 100 100 100 100 100 100 100 100
16 5 5 5 5 5 5 10 5 11 42 10 44 80 99 100 64 95 85 100 100 100 100 100 100 100 100 100 100 100 100 100 100 100 100 100 100 100
5 5 5 27 5 18 5 5 5 7 100 97 99 58 80 87 100 77 89 100 94 100 100 100 94 89 100 95 96 100 100 100 100 100 100 100 100 100
13 5 0 5 26 6 54 38 5 5 38 100 100 100 84 99 91 95 100 64 66 100 100 100 99 31 93 100 100 100 100 100 100 100 100 100 100 100
6 5 5 5 5 5 5 20 46 26 5 87 100 100 100 100 99 58 88 77 92 75 80 96 70 57 22 97 100 100 100 100 100 100 100 100 100 100
5 5 5 5 5 5 5 5 83 99 89 75 87 78 100 100 87 64 95 45 63 67 59 98 92 62 14 8 100 100 100 100 100 100 100 100 100 100
5 5 5 5 76 24 5 5 5 9 38 78 100 75 99 100 100 99 57 85 54 58 70 94 100 100 86 35 5 24 100 100 100 100 100 100 100 100
9 5 5 27 86 12 14 25 63 86 16 5 6 6 28 72 100 100 100 100 100 56 48 87 100 93 92 100 42 5 5 40 98 100 100 100 100 100
13 5 5 11 7 5 5 5 61 78 72 35 40 14 5 62 36 14 51 96 90 99 100 91 97 100 100 100 96 53 34 84 32 84 100 100 100 100
17 5 5 5 5 5 8 80 74 78 33 58 56 28 8 5 26 28 5 21 35 18 30 28 89 100 86 77 99 92 96 53 81 100 100 100 100 100
5 22 5 13 5 5 5 5 5 5 50 6 5 5 14 5 5 51 5 5 5 5 5 5 6 14 75 90 22 81 89 70 85 82 100 100 100 100
41 76 62 40 5 5 6 26 5 5 5 5 5 36 5 5 5 5 5 28 41 5 4 5 5 5 6 8 6 8 5 24 8 21 100 100 99 100
72 65 56 52 63 54 9 5 5 5 5 5 5 5 4 5 4 0 2 5 5 5 5 1 5 62 84 36 5 9 26 8 16 10 5 5 65 84
48 79 87 82 88 83 73 5 5 5 5 5 5 5 10 5 5 5 5 5 5 5 1 5 5 11 77 70 20 11 5 8 22 6 23 5 5 8
56 100 93 37 89 65 66 68 5 5 5 5 5 5 5 5 5 5 5 5 5 4 5 5 1 5 5 5 5 86 8 5 5 5 5 5 5 10
75 100 100 100 56 71 69 66 58 28 50 57 5 5 5 53 5 5 5 5 5 5 5 88 38 5 25 15 5 51 5 5 6 8 86 43 5 5
68 100 100 100 100 96 73 61 78 80 52 58 22 9 5 33 5 5 5 5 6 5 10 53 84 83 69 71 58 6 5 34 75 10 100 96 76 9
100 100 100 100 100 97 77 73 67 47 18 15 34 5 5 6 5 5 5 5 5 5 6 17 57 100 70 69 69 30 5 5 4 10 41 76 100 100
100 100 100 93 100 100 83 68 61 65 25 8 5 5 5 8 5 5 5 5 5 5 8 6 5 54 58 73 51 8 5 5 45 5 4 3 1 5

GFSNE_prec_cloud_174.txt.gz
Cloud_Cover
99 92 100 100 26 72 82 96 100 100 100 100 100 100 88 100 100 100 29 100 100 100 100 100 100 100 100 100 100 100 100 100 100 100 100 100 100 100
91 90 97 98 32 10 88 100 100 100 100 100 100 95 100 100 100 84 68 100 100 100 100 100 100 100 100 100 100 100 100 100 100 100 100 100 100 100
30 93 100 69 5 8 14 57 90 100 100 100 90 100 96 100 100 30 100 93 100 100 100 100 100 100 100 100 100 100 100 100 100 100 100 100 100 100
100 100 89 86 23 5 25 20 94 100 100 84 99 83 97 100 100 83 68 100 100 97 100 100 100 100 100 100 100 100 100 100 100 100 100 100 100 100
98 100 100 100 5 45 52 65 43 23 22 11 51 58 24 100 89 100 86 19 98 100 100 99 100 100 100 100 100 100 100 100 100 100 100 100 100 100
100 100 100 87 5 5 18 70 5 5 5 52 71 26 56 51 92 73 93 49 48 24 62 89 99 100 100 100 100 100 100 100 100 100 100 100 100 100
100 100 100 31 17 5 5 5 5 22 9 16 62 68 80 78 99 99 74 100 65 67 14 12 98 100 99 100 100 100 100 100 100 100 100 100 100 100
100 100 80 55 5 59 5 5 2 5 70 65 95 99 85 99 93 97 84 74 63 69 67 17 96 100 92 100 100 100 100 100 100 100 100 100 100 100
100 100 93 5 5 5 48 57 64 13 5 5 56 86 77 54 100 95 80 75 95 100 100 81 91 55 74 89 100 100 100 100 100 100 100 100 100 100
100 100 6 5 5 5 5 5 55 98 92 36 6 14 38 5 28 22 16 34 40 64 83 97 100 96 47 28 100 100 100 100 100 100 100 100 100 100
85 6 5 7 5 5 6 7 43 53 75 76 34 5 8 0 4 5 14 98 10 12 86 87 100 88 34 81 30 99 77 99 100 100 100 100 100 100
12 5 5 29 73 5 7 23 68 40 12 5 5 22 38 19 1 12 51 37 60 8 5 58 99 96 63 54 5 5 5 95 84 100 100 82 54 99
5 5 16 67 75 5 6 14 62 39 40 24 32 5 5 66 29 5 35 5 49 53 5 73 80 74 72 81 87 65 17 5 14 58 100 100 100 20
7 13 16 27 62 5 24 69 14 59 65 61 41 5 9 5 18 12 5 20 29 5 22 14 11 41 7 45 52 10 71 99 32 84 91 38 8 52
35 10 7 17 5 5 62 53 32 5 32 5 5 5 39 5 32 9 10 5 5 5 6 5 5 12 5 61 5 14 46 11 90 32 82 52 91 57
77 12 5 6 11 16 55 65 65 16 9 5 5 54 5 5 5 20 56 12 12 5 5 5 5 5 5 32 5 5 5 5 6 6 67 94 30 6
16 23 24 48 48 49 64 99 56 39 5 29 31 49 21 5 5 5 5 5 5 5 5 5 5 11 19 5 5 9 5 5 5 5 4 5 8 5
51 63 64 63 67 68 11 49 97 69 50 5 21 6 38 42 5 5 5 5 5 5 5 5 5 6 52 12 7 5 5 20 5 5 4 5 5 5
62 75 80 77 65 56 64 93 99 100 100 75 61 12 9 6 5 5 5 5 5 5 5 5 5 5 5 5 1 5 5 5 5 5 5 5 5 5
10 50 53 68 85 100 100 99 94 100 100 82 55 5 22 18 5 5 5 5 5 5 5 0 3 5 5 5 5 6 91 80 22 5 74 60 8 1
45 98 100 100 100 100 100 100 100 100 100 99 61 13 45 6 5 7 5 5 5 5 5 5 1 5 5 5 5 5 20 88 100 100 100 34 6 26
100 100 100 100 100 100 100 100 100 100 100 100 65 53 13 5 5 5 5 5 5 5 5 0 5 5 5 5 33 28 5 38 27 53 57 84 97 99
100 100 100 100 100 100 100 100 100 100 98 100 100 48 38 6 38 22 5 5 5 5 5 5 5 5 5 5 5 15 17 5 5 5 5 5 5 93

GFSNE_prec_cloud_180.txt.gz
Cloud_Cover
80 97 70 52 44 72 100 100 96 78 36 96 100 100 100 13 78 5 5 5 84 96 100 100 100 100 100 100 100 100 100 100 100 100 100 100 92 5
100 100 100 100 100 94 100 100 100 80 98 86 98 99 78 22 100 5 5 5 39 76 100 100 100 100 100 100 100 100 100 100 100 100 100 100 100 100
79 99 99 100 100 100 100 100 71 13 64 85 59 94 12 5 68 5 5 5 5 89 100 100 100 100 100 100 100 100 100 100 100 100 100 100 100 100
100 100 100 100 100 100 100 95 35 49 88 92 99 7 5 5 10 6 5 5 5 76 100 100 100 100 100 100 100 100 100 100 100 100 100 100 100 100
100 100 100 100 100 100 81 14 89 46 49 61 7 5 9 5 5 60 13 5 0 4 8 93 99 100 100 100 100 100 100 100 100 100 100 100 100 100
97 100 100 100 100 100 100 65 8 6 5 5 5 5 5 5 5 69 46 25 5 2 5 15 9 80 100 100 100 100 100 100 100 100 100 100 100 100
92 93 98 100 100 96 74 40 12 5 5 5 5 5 5 9 71 80 86 29 54 5 5 17 52 61 54 100 100 100 100 100 100 100 100 100 100 100
100 97 100 98 100 100 100 48 76 42 5 5 5 5 5 34 78 93 74 5 6 5 15 9 37 55 8 100 100 100 100 100 100 100 100 100 100 100
100 100 84 44 93 87 98 100 86 100 26 30 6 5 5 5 13 35 5 5 5 36 69 5 34 44 75 94 100 100 100 100 100 99 100 100 100 100
100 100 84 90 100 96 62 100 100 100 99 25 6 5 14 5 5 19 38 5 7 5 27 21 53 66 54 49 100 100 100 100 100 100 100 100 99 100
100 100 100 100 100 100 91 100 100 100 92 92 38 5 5 5 2 5 5 71 15 5 36 54 78 82 57 56 42 100 100 100 100 100 100 100 100 100
100 100 100 100 100 100 100 100 100 22 12 5 5 5 15 3 5 5 5 5 5 5 5 10 25 96 60 7 5 23 5 20 96 86 100 100 72 10
100 100 100 100 100 100 100 96 20 37 37 5 5 5 5 5 5 5 5 5 5 5 5 93 5 46 80 54 6 5 5 5 5 8 38 58 91 90
100 100 100 100 100 100 100 59 37 44 5 22 7 5 5 5 5 5 5 20 42 5 5 14 5 5 5 5 5 5 5 5 5 5 5 5 5 47
100 100 100 100 100 100 97 84 97 38 58 24 6 5 5 5 5 5 5 5 5 5 5 5 5 5 5 5 0 4 8 0 1 2 2 5 37 5
100 100 100 100 100 77 95 36 26 52 95 55 36 5 5 5 5 5 5 5 9 8 5 6 5 5 5 2 0 0 2 0 0 1 0 0 0 0
100 100 99 92 92 98 94 25 100 100 99 93 8 5 5 6 98 83 47 5 5 5 5 5 5 5 5 0 0 0 0 0 0 5 0 0 3 5
100 100 100 100 100 83 70 100 100 100 99 14 5 5 16 71 86 96 85 36 5 5 5 5 5 23 22 5 8 4 5 5 2 0 0 4 4 0
100 100 100 100 100 100 100 100 100 100 100 5 50 59 7 68 89 89 21 31 35 5 5 5 5 5 5 0 0 53 5 5 5 5 5 5 5 3
100 100 100 100 100 100 100 100 100 90 5 5 79 99 72 58 55 51 19 5 5 5 5 5 5 5 2 0 0 7 53 50 23 11 18 5 2 0
100 100 100 100 100 100 100 100 98 57 14 51 84 82 82 66 62 6 5 5 5 5 5 5 5 5 5 2 2 1 18 20 59 97 54 5 5 5
100 100 100 100 100 100 100 69 91 80 62 63 83 56 76 85 84 38 5 5 5 5 5 5 5 5 5 5 4 4 5 5 3 0 0 8 95 100
100 100 100 100 100 89 75 82 57 64 68 75 63 75 99 100 77 53 43 5 5 5 5 5 5 5 3 5 5 5 5 3 1 0 0 0 5 74

GFSNE_prec_cloud_183.txt.gz
Cloud_Cover
100 100 100 99 49 100 100 100 100 99 81 100 98 100 85 98 100 20 5 8 60 86 100 100 100 100 100 100 100 100 100 100 100 100 100 100 100 100
100 100 100 100 100 100 100 100 100 100 100 100 100 100 9 66 44 12 5 5 73 91 94 100 99 100 100 100 100 100 100 100 100 100 100 100 100 100
100 100 98 100 100 100 100 100 100 89 100 100 100 100 100 34 80 19 5 5 58 67 98 100 90 100 95 100 100 100 100 100 100 100 100 100 100 100
100 100 100 100 100 98 100 54 26 85 91 100 90 56 24 5 71 90 5 5 5 4 89 100 92 98 97 100 96 96 100 100 100 100 100 100 100 100
100 100 100 100 100 100 100 100 100 90 88 11 5 5 21 5 5 74 70 5 0 1 4 83 98 93 97 94 100 100 100 100 100 100 100 100 100 100
100 100 100 100 100 99 100 100 100 100 78 61 5 5 5 5 5 5 20 47 6 2 0 2 5 88 100 99 100 100 100 100 100 100 100 100 100 100
100 100 100 100 100 100 100 94 100 98 100 93 5 6 5 5 33 13 9 23 53 10 0 0 3 5 88 100 100 100 100 100 100 100 100 100 100 100
100 100 100 100 100 100 100 100 100 100 100 100 99 23 83 5 12 42 5 5 4 68 78 6 5 5 81 99 100 100 100 98 100 100 100 100 100 100
100 100 100 100 100 88 98 100 100 100 98 100 96 100 100 6 6 5 4 3 3 5 52 10 5 27 21 100 100 100 100 100 100 100 100 100 100 100
100 100 100 100 100 90 100 97 100 100 100 92 100 100 100 31 5 5 5 3 5 22 34 19 93 99 79 90 100 100 100 100 100 100 100 100 100 100
100 100 100 100 100 100 100 92 100 100 100 100 100 97 71 30 4 2 3 5 5 29 78 96 98 98 99 100 89 100 100 100 100 100 100 100 100 100
100 100 100 100 100 100 100 100 100 100 100 100 100 100 58 5 5 5 5 0 5 48 56 96 19 91 98 100 96 96 100 97 89 100 100 100 100 100
100 100 100 100 100 100 79 100 100 100 100 100 100 43 5 5 5 5 5 5 5 5 5 88 9 49 91 17 99 87 55 17 39 64 100 100 100 99
100 100 100 100 100 88 100 98 100 100 100 100 55 5 5 5 5 5 5 5 5 5 5 6 5 5 5 19 3 22 97 65 56 60 91 100 100 100
100 100 100 100 100 100 100 100 100 100 75 22 42 6 5 5 5 5 5 5 5 5 4 5 5 4 5 5 5 5 9 73 90 98 100 100 97 100
100 100 100 100 100 100 100 100 100 99 88 54 5 5 5 16 6 8 7 3 1 5 5 6 99 5 5 5 5 5 10 44 75 88 88 93 100 100
100 100 100 100 100 100 100 100 100 92 37 44 20 10 56 65 98 29 5 5 5 5 5 36 63 52 5 5 42 19 5 76 80 79 41 76 99 100
100 100 100 100 100 95 98 100 100 100 100 96 100 100 100 96 9 11 5 5 5 5 5 7 5 43 64 77 27 79 100 81 91 94 72 78 62 81
100 100 100 100 100 100 100 100 100 100 100 100 100 100 100 25 6 5 5 5 42 71 5 5 2 0 5 5 19 17 74 100 100 100 67 60 6 6
100 100 100 100 100 100 100 100 100 100 100 100 100 100 100 98 39 73 13 40 100 56 5 5 5 5 5 52 34 92 5 98 100 100 100 46 13 4
100 100 100 100 100 100 100 100 100 100 100 100 100 100 94 36 8 30 5 31 22 21 5 5 5 5 5 4 84 100 100 4 11 49 60 5 5 5
100 100 100 100 100 100 100 100 100 100 100 100 81 79 85 54 34 33 48 28 5 5 5 5 5 5 5 5 6 86 58 99 9 0 0 1 34 65
100 100 100 100 100 100 100 100 100 100 100 80 82 90 88 48 60 60 75 5 5 5 5 5 5 5 5 5 5 26 45 48 5 1 5 0 5 5

GFSNE_prec_cloud_186.txt.gz
Cloud_Cover
100 100 100 100 100 100 100 93 99 99 32 71 100 98 21 60 75 75 8 97 8 31 99 100 100 96 92 73 87 100 100 100 100 100 100 100 100 100
100 100 100 100 100 100 99 100 100 98 100 100 46 16 5 31 8 5 15 46 5 9 51 100 100 98 82 100 92 86 100 100 100 100 100 100 100 100
100 100 100 100 100 100 100 100 100 100 33 98 87 89 88 68 96 87 20 12 8 5 36 100 100 96 76 100 95 99 96 100 100 100 100 100 100 100
100 100 100 100 100 100 100 100 100 100 100 100 99 100 76 100 89 23 19 68 33 3 18 86 100 99 99 100 98 100 100 100 94 100 100 100 100 100
100 100 100 100 100 100 100 100 100 100 100 100 100 81 98 89 90 49 5 6 5 0 0 5 7 97 99 100 100 100 95 100 100 100 100 100 100 100
100 100 100 100 100 100 100 100 100 100 100 100 100 100 95 91 92 100 100 87 5 0 0 0 1 5 67 100 100 100 100 100 100 100 100 100 100 100
100 100 100 100 100 100 100 100 100 100 100 100 100 100 100 100 100 100 100 51 33 5 1 0 0 5 68 98 100 100 100 100 100 100 100 100 100 100
100 100 100 100 100 100 100 100 100 100 100 100 100 100 60 100 100 100 100 30 42 57 53 33 5 5 5 76 100 100 100 100 100 100 100 100 100 100
100 100 100 100 100 100 100 100 100 100 100 100 98 100 100 100 100 100 10 55 4 3 39 72 5 69 40 78 100 100 100 100 100 100 100 100 100 100
100 100 100 100 100 100 100 100 98 80 99 100 100 100 100 97 99 27 26 47 1 27 22 26 75 94 82 85 39 100 100 92 99 100 100 100 100 100
100 100 100 100 100 100 100 100 100 100 100 100 100 100 100 100 100 74 26 5 11 83 65 96 94 98 98 98 96 79 98 79 87 100 100 100 100 100
100 100 100 100 100 100 100 100 100 100 100 100 100 100 100 100 39 26 3 5 13 93 64 100 96 95 100 98 98 100 100 59 99 100 100 100 99 100
100 100 100 100 100 100 100 100 100 100 100 100 100 97 66 12 8 40 62 43 70 90 24 82 80 100 99 98 100 100 100 100 100 100 100 100 100 100
100 100 100 100 100 100 100 100 100 100 100 100 100 98 94 75 38 6 27 45 38 56 9 83 90 54 96 100 100 99 100 100 100 100 100 100 100 100
100 100 100 72 90 100 100 100 100 100 100 100 100 94 95 95 71 34 25 5 5 13 5 7 58 60 71 65 56 100 97 100 100 100 100 100 100 100
100 100 100 94 91 100 100 100 100 100 100 100 95 99 100 30 45 20 5 14 54 75 47 13 5 10 73 5 15 99 100 90 100 100 100 100 100 100
100 100 100 100 100 100 100 100 100 100 100 100 100 100 95 71 7 28 97 78 49 63 96 58 13 5 5 10 97 99 100 100 100 100 90 100 100 100
100 100 100 100 100 100 100 100 100 100 100 100 100 100 100 63 96 100 77 100 95 52 28 20 11 50 98 82 4 59 98 100 100 100 100 99 100 100
100 100 100 100 100 100 100 100 100 100 100 100 100 100 96 98 100 99 100 88 5 5 5 5 5 5 22 100 78 5 38 100 100 100 99 99 86 100
100 100 100 100 100 100 100 100 100 100 100 100 100 100 100 100 100 100 100 50 8 8 5 5 5 5 5 100 100 100 6 13 100 100 100 56 15 8
100 100 100 100 100 100 100 100 100 100 100 100 100 100 100 100 100 100 71 63 79 15 5 5 5 5 5 5 80 100 97 5 5 5 5 5 5 5
100 100 100 100 100 100 100 100 100 100 100 100 100 100 100 100 97 100 98 100 42 69 91 5 5 5 5 6 27 94 92 100 82 4 0 0 4 5
100 100 100 100 100 100 100 100 100 100 100 100 100 100 100 100 100 100 100 100 100 69 59 32 5 5 5 5 5 5 13 27 17 5 22 4 0 3

GFSNE_prec_cloud_192.txt.gz
Cloud_Cover
100 100 100 100 100 100 100 100 100 100 100 100 100 100 100 100 100 100 100 100 100 100 100 77 100 100 100 91 15 94 5 6 5 5 11 7 96 100
100 100 100 100 100 100 100 100 100 100 100 100 100 100 100 100 100 100 100 100 38 100 100 100 100 100 99 100 90 36 47 6 68 34 12 5 53 56
100 100 100 100 100 100 100 100 100 100 100 100 100 100 100 100 100 100 100 72 84 100 100 100 82 100 99 87 78 89 81 93 37 18 5 21 79 99
100 100 100 100 100 100 100 100 100 100 100 100 100 100 100 100 100 100 100 100 100 100 100 100 100 100 100 92 94 95 77 81 72 5 5 84 80 94
100 100 100 100 100 100 100 100 100 100 100 100 100 100 100 100 100 100 100 100 100 100 100 100 100 100 100 77 79 79 99 90 58 5 46 21 60 100
100 100 100 100 100 100 100 100 100 100 100 100 100 100 100 100 100 100 100 100 100 100 100 100 100 100 60 56 91 71 70 87 82 42 29 76 81 100
100 100 100 100 100 100 100 100 100 100 100 100 100 100 100 100 100 100 100 100 100 100 100 100 100 53 80 63 89 10 65 76 77 66 70 97 100 100
100 100 100 100 100 100 100 100 100 100 100 100 100 100 100 100 100 100 100 100 100 100 100 100 99 38 100 87 61 20 5 52 73 77 89 100 100 100
100 100 100 100 100 100 100 100 100 100 100 100 100 100 100 100 100 100 100 100 100 100 100 100 95 33 82 59 5 5 5 8 73 72 87 90 100 100
100 100 100 100 100 100 100 100 100 100 100 100 100 100 100 100 100 100 100 100 100 100 99 100 98 72 94 98 60 5 5 5 68 88 55 5 41 100
100 100 100 100 100 100 100 100 100 100 100 100 100 100 100 100 100 100 100 97 100 100 100 100 96 79 100 78 78 5 5 5 12 100 97 30 5 40
100 100 100 100 100 100 100 100 100 100 100 100 100 100 100 100 100 100 99 100 100 100 99 100 100 100 100 100 99 5 5 5 88 95 100 99 14 5
100 100 100 100 100 100 100 100 100 100 100 100 100 100 100 100 100 100 80 79 100 100 100 100 100 100 100 100 100 36 5 5 5 5 5 31 99 78
100 100 100 100 100 100 100 100 100 100 100 100 100 100 100 100 100 91 99 100 100 100 100 100 100 100 100 100 100 78 5 5 5 5 5 85 5 47
100 100 100 100 100 100 100 100 100 100 100 100 100 99 100 100 76 87 100 100 100 100 100 100 100 100 100 98 59 8 5 36 5 5 5 23 64 5
100 100 100 100 98 100 100 100 100 100 100 100 100 100 100 100 100 100 100 100 100 100 100 100 100 100 100 33 5 50 19 7 68 14 5 8 100 80
100 100 100 100 100 100 100 100 100 100 100 100 89 89 100 100 100 100 100 100 100 100 100 100 100 100 100 84 5 19 11 6 77 7 3 5 18 100
100 100 100 100 100 100 100 100 100 100 100 100 100 100 100 100 100 100 100 100 100 100 100 100 100 100 99 51 90 45 5 6 100 34 5 75 5 78
100 100 100 100 100 100 100 100 100 100 100 100 100 100 100 100 100 100 100 100 100 100 100 100 100 100 100 100 94 5 64 5 5 5 26 100 71 35
100 100 100 100 100 100 100 100 100 100 100 100 100 100 100 100 100 100 100 100 100 100 100 100 100 100 100 100 89 20 6 47 5 5 5 5 4 0
100 100 100 100 100 100 100 100 100 100 100 100 100 100 100 100 100 100 100 100 100 100 100 70 65 63 100 100 96 29 80 43 10 4 2 5 5 5
100 100 100 100 100 100 100 100 100 100 100 100 100 100 100 100 100 100 100 100 100 100 100 100 100 100 100 100 41 18 71 22 20 11 5 1 5 5
100 100 100 100 100 100 100 100 100 100 100 100 100 100 100 100 100 100 100 100 100 100 100 100 100 100 99 66 71 54 45 97 6 5 5 5 5 5

GFSNE_prec_cloud_195.txt.gz
Cloud_Cover
100 100 100 100 100 100 100 100 100 100 100 100 100 100 100 100 100 100 100 100 100 100 100 100 89 99 17 90 100 88 84 100 100 100 97 23 6 3
100 100 100 100 100 100 100 100 100 100 100 100 100 100 100 100 100 100 100 100 100 100 100 100 100 100 100 100 59 57 100 100 99 79 28 26 30 12
100 100 100 100 100 100 100 100 100 100 100 100 100 100 100 100 100 100 100 100 99 100 100 100 100 100 100 100 100 100 100 100 99 100 79 21 78 8
100 100 100 100 100 100 100 100 100 100 100 100 100 100 100 100 100 100 100 100 100 100 100 100 100 100 100 100 100 100 100 86 100 94 76 73 88 89
100 100 100 100 100 100 100 100 100 100 100 100 100 100 100 100 100 100 100 100 100 100 100 100 100 100 100 100 100 100 100 99 93 95 76 88 98 98
100 100 100 100 100 100 100 100 100 100 100 100 100 100 100 100 100 100 100 100 100 100 100 100 100 100 100 100 100 100 100 100 100 98 100 100 100 100
100 100 100 100 100 100 100 100 100 100 100 100 100 100 100 100 100 100 100 100 100 100 100 100 100 100 100 100 100 100 100 90 97 92 100 99 100 100
100 100 100 100 100 100 100 100 100 100 100 100 100 100 100 100 100 100 100 100 100 100 100 100 100 100 100 100 100 92 100 100 100 100 100 98 6 100
100 100 100 100 100 100 100 100 100 100 100 100 100 100 100 100 100 100 100 100 100 100 100 100 100 100 100 100 98 100 100 100 100 100 98 100 87 100
100 100 100 100 100 100 100 100 100 100 100 100 100 100 100 100 100 100 100 100 100 100 100 100 100 100 100 100 100 100 100 100 100 100 98 98 86 94
100 100 100 100 100 100 100 100 100 100 100 100 100 100 100 100 100 100 100 100 100 100 100 100 100 100 100 100 100 100 100 100 100 100 100 5 5 5
100 100 100 100 100 100 100 100 100 100 100 100 100 100 100 100 100 100 100 100 100 100 100 100 100 100 100 100 100 100 100 100 100 100 82 100 14 5
100 100 100 100 100 100 100 100 100 100 100 100 100 100 100 100 100 100 100 100 100 100 100 100 100 94 100 100 100 100 100 100 100 100 21 76 47 14
100 100 100 100 100 100 100 100 100 100 100 100 100 100 100 100 100 100 100 100 100 100 100 100 95 70 99 100 100 100 100 100 100 59 5 5 87 70
100 100 100 100 100 100 100 100 100 100 100 100 100 100 100 100 100 100 100 100 100 100 99 100 100 100 100 100 100 100 100 100 100 40 5 5 45 94
100 100 100 100 100 100 100 100 100 100 100 100 100 100 100 100 100 100 100 100 100 100 98 99 100 100 100 100 100 100 100 100 100 46 5 5 6 50
100 100 100 100 100 100 100 100 100 100 100 100 100 100 100 100 100 100 100 100 100 100 100 100 100 100 100 100 100 100 100 100 100 53 33 5 15 15
100 100 100 100 100 100 100 100 100 100 100 100 100 100 100 100 100 100 100 100 100 100 100 100 100 100 100 100 100 100 100 100 97 65 44 5 43 41
100 100 100 100 100 100 100 100 100 100 100 100 100 100 100 100 100 100 100 100 100 100 100 100 100 100 100 100 100 100 100 100 72 58 10 5 5 7
100 100 100 100 100 100 100 100 100 100 100 100 100 100 100 100 100 100 100 100 100 100 100 100 100 100 100 100 100 100 100 89 71 15 23 5 5 5
100 100 100 100 100 100 100 100 100 100 100 100 100 100 100 100 100 100 100 100 100 100 100 100 100 100 100 100 100 100 100 100 100 100 60 65 5 6
100 100 100 100 100 100 100 100 100 100 100 100 100 100 100 100 100 100 100 100 100 100 100 99 100 100 100 100 100 100 100 100 100 100 99 56 17 4
100 100 100 100 100 100 100 100 100 100 100 100 100 100 100 100 100 100 100 100 100 100 100 100 100 100 100 100 100 100 100 80 75 35 5 5 5 5

GFSNE_prec_cloud_198.txt.gz
Cloud_Cover
100 100 100 100 100 100 100 100 100 100 100 100 100 100 100 100 100 100 100 100 100 100 100 100 100 100 100 89 99 81 61 5 5 5 28 93 100 100
100 100 100 100 100 100 100 100 100 100 100 100 100 100 100 100 100 100 100 100 100 100 100 100 100 100 95 95 98 100 7 72 40 99 100 100 100 89
100 100 100 100 100 100 100 100 100 100 100 100 100 100 100 100 100 100 100 100 100 100 100 100 100 100 100 100 100 100 34 92 100 100 83 100 100 100
100 100 100 100 100 100 100 100 100 100 100 100 100 100 100 100 100 100 100 100 100 100 100 100 100 100 100 100 100 100 100 100 100 100 100 100 100 100
100 100 100 100 100 100 100 100 100 100 100 100 100 100 100 100 100 100 100 100 100 100 100 100 100 100 100 100 100 100 100 100 100 100 100 100 100 100
100 100 100 100 100 100 100 100 100 100 100 100 100 100 100 100 100 100 100 100 100 100 100 100 100 100 100 100 100 100 100 100 100 100 100 100 100 100
100 100 100 100 100 100 100 100 100 100 100 100 100 100 100 100 100 100 100 100 100 100 100 100 100 100 100 100 100 100 100 100 100 100 100 100 100 100
100 100 100 100 100 100 100 100 100 100 100 100 100 100 100 100 100 100 100 100 100 100 100 100 100 100 100 100 100 100 100 100 100 100 100 100 100 100
100 100 100 100 100 100 100 100 100 100 100 100 100 100 100 100 100 100 100 100 100 100 100 100 100 100 100 100 100 100 100 100 100 100 100 100 100 100
100 100 100 100 100 100 100 100 100 100 100 100 100 100 100 100 100 100 100 100 100 100 100 100 100 100 100 100 100 100 100 100 100 100 99 100 100 100
100 100 100 100 100 100 100 100 100 100 100 100 100 100 100 100 100 100 100 100 100 100 100 100 100 100 100 97 100 92 100 100 100 100 100 100 100 100
100 100 100 100 100 100 100 100 100 100 100 100 100 100 100 100 100 100 100 100 100 100 100 100 100 81 92 95 99 100 100 100 100 100 100 100 100 100
100 100 100 100 100 100 100 100 100 100 100 100 100 100 100 100 100 100 100 100 100 100 100 100 100 100 100 100 100 100 99 100 95 73 100 100 100 100
100 100 100 100 100 100 100 100 100 100 100 100 100 100 100 100 100 100 100 100 100 100 86 100 62 100 100 100 100 99 100 100 45 99 100 100 100 100
100 100 100 100 100 100 100 100 100 100 100 100 100 100 100 100 100 100 100 100 100 100 98 100 100 100 95 97 100 100 100 69 52 45 98 100 100 100
100 100 100 100 100 100 100 100 100 100 100 100 100 100 100 100 100 100 100 100 100 100 100 100 100 100 98 92 94 98 100 97 100 97 88 98 100 100
100 100 100 100 100 100 100 100 100 100 100 100 100 100 100 100 100 100 100 100 100 100 100 100 100 100 100 98 100 92 100 100 100 100 100 100 100 100
100 100 100 100 100 100 100 100 100 100 100 100 100 100 100 100 100 100 100 100 100 100 100 100 100 100 100 100 100 100 100 100 100 100 100 100 100 100
100 100 100 100 100 100 100 100 100 100 100 100 100 100 100 100 100 100 100 100 100 100 100 100 100 100 100 100 100 99 100 85 95 100 100 100 100 100
100 100 100 100 100 100 100 100 100 100 100 100 100 100 100 100 100 100 100 100 100 100 100 100 100 100 100 100 100 100 99 100 100 100 100 100 100 100
100 100 100 100 100 100 100 100 100 100 100 100 100 100 100 100 100 100 100 100 100 100 100 100 100 100 100 100 100 100 89 96 79 96 100 100 96 96
100 100 100 100 100 100 100 100 100 100 100 100 100 100 100 100 100 100 100 100 100 100 100 100 100 100 100 100 100 100 100 100 100 100 100 100 100 100
100 100 100 100 100 100 100 100 100 99 100 100 100 100 100 100 100 100 100 100 100 100 100 100 100 100 100 100 100 100 100 100 100 100 100 100 100 100

GFSNE_prec_cloud_201.txt.gz
Cloud_Cover
37 100 100 100 100 100 100 100 100 100 100 100 100 100 100 100 100 100 100 100 100 100 100 100 100 100 100 100 100 97 22 100 80 36 26 15 20 5
32 100 100 100 100 100 100 100 100 100 100 100 100 100 100 100 100 100 100 100 100 100 100 100 100 100 100 100 100 96 79 100 100 100 78 47 24 41
100 77 100 100 100 100 100 95 100 100 100 100 100 100 100 100 100 100 100 100 100 100 100 100 100 100 100 100 100 100 100 100 100 100 100 76 100 100
100 100 100 100 100 100 100 100 100 100 100 100 100 100 100 100 100 100 100 100 100 100 100 100 100 100 100 100 100 100 100 100 100 100 100 100 100 100
100 100 100 96 100 100 100 100 100 100 100 100 100 100 100 100 100 100 100 100 100 100 100 100 100 100 100 100 100 100 100 100 100 100 100 96 100 100
100 100 100 100 100 100 100 100 100 100 100 100 100 100 100 100 100 100 100 100 100 100 100 100 100 100 100 100 100 100 100 100 100 100 100 100 100 100
100 100 100 100 100 100 100 100 100 100 100 100 100 100 100 100 100 100 100 100 100 100 100 100 100 100 100 100 100 100 100 100 100 100 100 100 100 100
100 100 100 100 100 100 100 100 100 100 100 100 100 100 100 100 100 100 100 100 100 100 100 100 100 100 100 100 100 100 100 100 100 100 100 100 100 100
100 100 100 100 100 100 100 100 100 100 100 100 100 100 100 100 100 100 100 100 100 100 100 100 100 100 100 100 100 100 100 100 100 100 100 100 100 100
100 100 100 100 100 100 100 100 100 100 100 100 100 100 100 100 100 100 100 100 100 100 100 100 100 100 100 100 100 100 100 100 100 100 100 100 100 100
100 100 100 100 100 100 100 100 100 100 100 100 100 100 100 100 100 100 100 100 100 100 100 100 100 100 100 100 100 100 100 100 100 100 100 100 100 100
100 100 100 100 100 100 100 100 100 100 100 100 100 100 100 100 100 100 100 100 100 100 100 100 100 100 100 100 100 100 100 100 100 100 99 100 100 100
100 100 100 100 100 100 100 100 100 100 100 100 100 100 100 100 100 100 100 100 100 100 100 99 100 97 100 100 100 100 100 100 100 96 100 100 100 100
100 100 100 100 100 100 100 100 100 100 100 100 100 100 100 100 100 100 100 100 100 100 100 100 100 100 100 100 88 89 99 100 100 77 100 100 100 100
100 100 100 100 100 100 100 100 100 100 100 100 100 100 100 100 100 100 100 100 100 100 100 100 100 99 100 100 100 100 100 98 100 100 100 100 98 70
100 100 100 100 100 100 100 100 100 100 100 100 100 100 100 100 100 100 100 100 100 100 100 100 100 100 100 100 100 100 100 100 100 100 100 100 91 26
100 100 100 100 100 100 100 100 100 100 100 100 100 100 100 100 100 100 100 100 100 100 100 100 100 100 100 100 100 100 100 100 64 87 63 56 75 7
100 100 100 100 100 100 100 100 100 100 100 100 100 100 100 100 100 100 100 100 100 100 100 100 100 100 100 100 100 100 100 100 89 87 73 75 90 77
100 100 100 100 100 100 100 100 100 100 100 100 100 100 100 100 100 100 100 100 100 100 100 100 100 100 100 100 100 100 100 100 100 98 99 100 80 70
100 100 100 100 100 100 100 100 100 100 100 100 100 100 100 100 100 100 100 100 100 100 100 100 100 100 100 100 100 100 100 100 100 100 100 92 99 93
100 100 100 100 100 100 100 100 100 100 100 100 100 100 100 100 100 100 100 100 100 100 100 100 100 100 100 100 100 100 100 100 100 100 100 100 100 99
100 100 100 100 100 100 100 100 100 100 100 100 100 100 100 100 100 100 100 100 100 100 100 100 100 100 100 100 100 100 100 100 100 100 100 100 91 99
100 100 100 100 100 100 100 100 100 100 100 100 100 100 100 100 100 100 100 100 100 100 100 100 100 100 100 100 100 100 100 100 100 100 100 100 100 91